FW6870 Weather Reports


Display with metric or nautical units.
time (UTC)temp
F
wind
direction
speed
MPH
gust
MPH
rain 1hr
in
rain 24hr
in
rain mn
in
humidity
%
barometer
mb
20260831011536 81 140 4.0 5.0 0.00 0.00 0.00 70 1021.7
20260831010036 81 142 3.0 5.0 0.00 0.00 0.00 69 1021.4
20260831004544 82 135 2.0 4.0 0.00 0.00 0.00 69 1021.2
20260831003033 82 136 2.0 4.0 0.00 0.00 0.00 67 1021.3
20260831001534 83 130 3.0 4.0 0.00 0.00 0.00 66 1021.0
20260831000036 83 133 2.0 4.0 0.00 0.00 0.00 65 1021.0
20260830234542 84 135 2.0 4.0 0.00 0.00 0.00 64 1020.8
20260830233040 85 121 2.0 7.0 0.00 0.00 0.00 62 1020.8
20260830231536 85 124 3.0 5.0 0.00 0.00 0.00 61 1020.7
20260830230034 85 130 3.0 7.0 0.00 0.00 0.00 59 1020.8
20260830224540 85 136 3.0 7.0 0.00 0.00 0.00 60 1020.6
20260830223038 85 128 4.0 8.0 0.00 0.00 0.00 61 1020.6
20260830221545 86 130 4.0 8.0 0.00 0.00 0.00 60 1020.6
20260830220040 86 154 4.0 9.0 0.00 0.00 0.00 59 1020.7
20260830214542 86 149 5.0 11.0 0.00 0.00 0.00 58 1020.9
20260830213046 86 123 4.0 9.0 0.00 0.00 0.00 59 1020.9
20260830211551 86 163 6.0 12.0 0.00 0.00 0.00 60 1021.1
20260830210050 86 138 6.0 9.0 0.00 0.00 0.00 60 1020.9
20260830204535 85 140 5.0 11.0 0.00 0.00 0.00 62 1021.2
20260830203045 85 87 5.0 12.0 0.00 0.00 0.00 64 1021.1
20260830201534 85 126 3.0 13.0 0.00 0.00 0.00 65 1021.0
20260830200037 85 162 7.0 11.0 0.00 0.00 0.00 65 1021.4
20260830194539 85 141 8.0 14.0 0.00 0.00 0.00 65 1021.6
20260830193036 85 153 4.0 10.0 0.00 0.00 0.00 65 1021.7
20260830191538 85 65 5.0 11.0 0.00 0.00 0.00 65 1021.8
20260830190035 84 109 2.0 11.0 0.00 0.00 0.00 66 1022.0
20260830184538 85 146 6.0 10.0 0.00 0.00 0.00 65 1022.3
20260830183040 83 98 3.0 10.0 0.00 0.00 0.00 66 1022.4
20260830181535 83 152 5.0 9.0 0.00 0.00 0.00 70 1022.7
20260830180035 83 90 3.0 10.0 0.00 0.00 0.00 71 1022.9
20260830174541 83 153 2.0 9.0 0.00 0.00 0.00 70 1023.1
20260830173034 83 175 4.0 11.0 0.00 0.00 0.00 70 1023.2
20260830171536 83 360 4.0 10.0 0.00 0.00 0.00 69 1023.5
20260830170034 83 132 1.0 9.0 0.00 0.00 0.00 70 1023.6
20260830164541 82 163 3.0 10.0 0.00 0.00 0.00 72 1023.8
20260830163036 81 132 1.0 10.0 0.00 0.00 0.00 77 1023.9
20260830161551 80 125 4.0 8.0 0.00 0.00 0.00 77 1024.1
20260830160036 80 96 5.0 11.0 0.00 0.00 0.00 76 1024.2
20260830154539 80 142 5.0 10.0 0.00 0.00 0.00 77 1024.3
20260830153049 79 116 7.0 10.0 0.00 0.00 0.00 79 1024.3
20260830151536 78 148 5.0 9.0 0.00 0.00 0.00 83 1024.3
20260830150034 78 155 3.0 9.0 0.00 0.00 0.00 85 1024.3
20260830144535 78 140 4.0 9.0 0.00 0.00 0.00 86 1024.5
20260830143042 77 94 3.0 7.0 0.00 0.00 0.00 88 1024.4
20260830141534 77 132 5.0 9.0 0.00 0.00 0.00 88 1024.4
20260830140034 76 82 2.0 7.0 0.00 0.00 0.00 91 1024.3
20260830134539 75 131 3.0 7.0 0.00 0.00 0.00 92 1024.2
20260830133035 74 72 3.0 5.0 0.00 0.00 0.00 94 1024.3
20260830131540 73 117 1.0 8.0 0.00 0.00 0.00 95 1024.3
20260830130051 73 122 4.0 7.0 0.00 0.00 0.00 96 1024.4
20260830124536 72 117 2.0 6.0 0.00 0.00 0.00 96 1024.2
20260830123035 72 120 1.0 5.0 0.00 0.00 0.00 97 1024.2
20260830121537 71 123 2.0 7.0 0.00 0.00 0.00 97 1024.0
20260830120042 71 103 4.0 7.0 0.00 0.00 0.00 97 1023.9
20260830114603 71 100 3.0 7.0 0.00 0.00 0.00 97 1023.8
20260830113033 71 123 3.0 7.0 0.00 0.00 0.00 97 1023.5
20260830111536 71 119 3.0 6.0 0.00 0.00 0.00 96 1023.2
20260830110036 72 90 2.0 6.0 0.00 0.00 0.00 96 1023.0
20260830104538 72 90 3.0 6.0 0.00 0.00 0.00 96 1022.7
20260830103035 72 90 3.0 4.0 0.00 0.00 0.00 96 1022.5
20260830101548 72 86 3.0 7.0 0.00 0.00 0.00 96 1022.5
20260830100036 72 92 3.0 6.0 0.00 0.00 0.00 95 1022.3
20260830094535 72 126 3.0 5.0 0.00 0.00 0.00 95 1022.6
20260830093033 72 124 3.0 4.0 0.00 0.00 0.00 95 1022.4
20260830091538 72 124 3.0 6.0 0.00 0.00 0.00 94 1022.4
20260830090034 73 117 4.0 7.0 0.00 0.00 0.00 94 1022.5
20260830084535 73 92 3.0 8.0 0.00 0.00 0.00 93 1022.4
20260830083039 73 92 6.0 9.0 0.00 0.00 0.00 94 1022.3
20260830081534 72 78 5.0 11.0 0.00 0.00 0.00 93 1022.5
20260830080036 73 53 6.0 10.0 0.00 0.00 0.00 92 1022.4
20260830074545 74 68 4.0 9.0 0.00 0.00 0.00 91 1022.3
20260830073035 74 55 7.0 10.0 0.00 0.00 0.00 91 1022.3
20260830071536 73 52 6.0 9.0 0.00 0.00 0.00 92 1022.4
20260830070044 73 49 6.0 10.0 0.00 0.00 0.00 92 1022.5
20260830064534 73 51 8.0 10.0 0.00 0.00 0.00 91 1022.7
20260830063039 74 48 5.0 10.0 0.00 0.00 0.00 90 1022.8
20260830061537 74 44 5.0 7.0 0.00 0.00 0.00 90 1022.9
20260830060035 74 36 3.0 5.0 0.00 0.00 0.00 89 1022.9
20260830054535 75 36 4.0 5.0 0.00 0.00 0.00 88 1023.1
20260830053035 75 194 1.0 3.0 0.00 0.00 0.00 88 1023.2
20260830051541 75 193 0.0 2.0 0.00 0.00 0.00 87 1023.1
20260830050045 76 193 2.0 5.0 0.00 0.00 0.00 87 1023.0
20260830044538 76 195 3.0 5.0 0.00 0.00 0.00 87 1023.2
20260830043034 75 186 4.0 7.0 0.00 0.00 0.00 87 1023.2
20260830041535 76 163 4.0 6.0 0.00 0.00 0.00 86 1023.3
20260830034538 76 165 4.0 6.0 0.00 0.00 0.00 85 1023.4
20260830033042 77 167 3.0 8.0 0.00 0.00 0.00 84 1023.5
20260830031546 77 152 4.0 9.0 0.00 0.00 0.00 84 1023.6
20260830030036 77 152 4.0 10.0 0.00 0.00 0.00 84 1023.4
20260830024536 77 170 6.0 11.0 0.00 0.00 0.00 83 1023.2
20260830023033 77 164 6.0 10.0 0.00 0.00 0.00 83 1023.1
20260830021536 78 151 5.0 7.0 0.00 0.00 0.00 82 1023.0
20260830020058 78 157 5.0 9.0 0.00 0.00 0.00 81 1022.7
20260830014536 79 153 4.0 7.0 0.00 0.00 0.00 79 1022.5
20260830013035 79 147 4.0 7.0 0.00 0.00 0.00 78 1022.0